sat.trackr.live / text

‹ back to catalog

TIANQI-26

NORAD 59910 · 2024-102B

PAYLOAD ACTIVE UNKNOWN

§ Identity

Operator
Country
PRC
Launch date
2024-05-29
Launch site
YSLA
Launch vehicle
Mass (kg)
RCS (m²)

External: N2YO · Heavens-Above · Gunter

§ Orbital elements

Epoch: 2026-05-25T02:05:16.158048Z

Period
102.92 min
Inclination
44.9749°
Eccentricity
0.0009634
Mean motion
13.99174586 rev/d
Perigee alt
889.6 km
Apogee alt
903.7 km
Semi-major
7,274.8 km
B*
1.4235e-4
RAAN
4.3387°
Arg perigee
133.0596°
Mean anomaly
227.1044°
Rev number
10,167

§ Raw data

TIANQI-261 59910U 24102B   26145.08699257  .00000079  00000+0  14235-3 0  99902 59910  44.9749   4.3387 0009634 133.0596 227.1044 13.99174586101675

JSON: /api/v1/satellites/59910 · /tle

For live sub-satellite position, see the globe view (requires WebGL).

§ Visibility from observer

Set your observer location to see the next 7 days of passes ≥ 10°. The values pass through the URL so the page stays shareable.

No JS? Fill the form by hand. The geolocation button needs JavaScript.